COSMOS 1275 DEB, 12771

Orbit data source: Space-Track

COSMOS 1275 DEB, 12771 is space debris in LEO originally from a launch on Thu, 04 Jun 1981 UTC launched from the Plesetsk Missile And Space Complex (PKMTR). Debris objects in space refer to the collection of defunct objects orbiting the Earth. Examples of debris include non-operational satellites, rocket bodies, and fragments generated from explosions, collisions, or faulty payload assembly.

Loading next visibility...
Identifier
12771, 1981-053DQ
Orbit
LEO
Country
Flag of CISCIS
Related business
Manufacturer
Unknown
Mission
Spacecraft
Bus & Motor
Unknown
Mass
Unknown
Launch date (UTC)
1981-06-04 (45 years ago)
Launch vehicle
Unknown
Launch site
Plesetsk Missile And Space Complex (PKMTR)
Object type
Payload
Rocket body
Debris
Shape & HBR
Unknown shape, 0.1 m
Radar Cross Section
Medium (>0.1 m² and <1 m²)

Expand to show TLE details & history
Last TLE update: 11 hours ago

TLE from 11 hours ago
0 COSMOS 1275 DEB
1 12771U 81053DQ  26254.96336991  .00000706  00000-0  74054-3 0  9996
2 12771  82.8649  62.6970 0149733 270.5885 218.3571 13.69161739231930
Epoch: 2026-09-11T23:07Z
TLE epoch observation values (Epoch: 2026-09-11T23:07:15.160Z)
Latitude
51.63282°
Longitude
-104.1464°
Altitude
1,098.206 km
Speed
7.265 km/s
True Right ascension
15h 34m 35s
True Declination
51° 28' 23"
Sunlit
Object was in daylight at epoch
Visualization orbit readout
Latitude
Unknown
Longitude
Unknown
Altitude
Unknown
Speed
Unknown
Apparent Right ascension
Unknown
Apparent Declination
Unknown
Sunlit
N/A
Visualization observer readout
Local Sidereal Time
02:53:54
Azimuth
Unknown
Elevation
Unknown
Doppler factor
Unknown
Orbital elements
Apogee altitude
1,110.212 km
Perigee altitude
889.27 km
Semi-major axis
7,377.878 km
Eccentricity
0.01497
Inclination
82.8649°
RAAN
62.697°
Arg. of periapsis
270.5885°
True anomaly
217.3078°
Mean anomaly
218.3571°
Eccentric anomaly
217.83092°
Mean motion
3.42488 °/min
Orbital period
105.11 mins
BSTAR
0.00074054
Loading maneuver chart data...
Computing Atmospheric mass density...
Loading historical data...
Loading historical data...
Loading historical data...
Loading historical data...
Loading historical data...
Loading historical data...
Loading historical data...

Documentation

Showing up to 5 results
|